Weather History for KSAZ - October, 2012

Change the Weather History Date:

Friday, October 19, 2012

  Actual Average Record
Temperature  
Mean Temperature 44 °F -  
Max Temperature 46 °F 51 °F 84 °F (2000)
Min Temperature 42 °F 33 °F 26 °F (2011)
Degree Days  
Heating Degree Days 21    
Moisture  
Dew Point 43 °F    
Average Humidity 93    
Maximum Humidity 100    
Minimum Humidity 87    
Precipitation  
Precipitation 0.27 in - - ()
Sea Level Pressure  
Sea Level Pressure 29.62 in    
Wind  
Wind Speed 8 mph (NNW)    
Max Wind Speed 17 mph    
Max Gust Speed 24 mph    
Visibility 8 miles    
Events Rain    
Averages and records for this station are not official NWS values.
T = Trace of Precipitation, MM = Missing Value Source: NWS Daily Summary

Daily Weather History Graph

Daily Weather History Graph

Search for Another Location

Airport or City:

Trip Planner

Search our weather history database for the weather conditions in past years. The results will help you decide how hot, cold, wet, or windy it might be!

Date:

Astronomy

Oct. 19, 2012 Rise Set
Actual Time 7:42 AM CDT 6:24 PM CDT
Civil Twilight 7:12 AM CDT 6:55 PM CDT
Nautical Twilight 6:37 AM CDT 7:30 PM CDT
Astronomical Twilight 6:02 AM CDT 8:04 PM CDT
Moon 12:38 PM CDT (10/19) 9:52 PM CDT (10/19)
Length of Visible Light 11h 42m
Length of Day
10h 41m
Waxing Crescent, 24% of the Moon is Illuminated
Oct 19
Waxing Crescent
Oct 21
First Quarter
Oct 29
Full
Nov 6
Last Quarter
Nov 13
New

Hourly Weather History & Observations

Time (CDT) Temp. Windchill Dew Point Humidity Pressure Visibility Wind Dir Wind Speed Gust Speed Precip Events Conditions
12:14 AM 46.4 °F 45.2 °F 44.6 °F 93% 29.42 in 5.0 mi NNE 3.5 mph - 0.01 in Rain Light Rain
12:33 AM 46.4 °F 45.2 °F 44.6 °F 93% 29.43 in 7.0 mi North 3.5 mph - 0.03 in Rain Light Rain
12:54 AM 46.4 °F - 44.6 °F 93% 29.43 in 2.5 mi Calm Calm - 0.05 in Rain Heavy Rain
1:14 AM 46.4 °F - 44.6 °F 93% 29.43 in 2.5 mi Calm Calm - 0.01 in   Heavy Drizzle
1:54 AM 46.4 °F 41.9 °F 46.4 °F 100% 29.44 in 3.0 mi NNW 9.2 mph - 0.03 in   Drizzle
2:14 AM 46.4 °F 41.5 °F 46.4 °F 100% 29.45 in 2.5 mi NNW 10.4 mph - 0.01 in Rain Heavy Rain
2:33 AM 46.4 °F 41.9 °F 46.4 °F 100% 29.45 in 7.0 mi NNW 9.2 mph 17.3 mph 0.04 in Rain Light Rain
2:54 AM 46.4 °F 41.1 °F 46.4 °F 100% 29.46 in 5.0 mi North 11.5 mph - 0.05 in   Drizzle
3:13 AM 46.4 °F 40.4 °F 46.4 °F 100% 29.47 in 4.0 mi North 13.8 mph 18.4 mph 0.01 in   Heavy Drizzle
3:33 AM 46.4 °F 41.1 °F 46.4 °F 100% 29.47 in 4.0 mi North 11.5 mph 18.4 mph 0.02 in   Drizzle
3:54 AM 46.4 °F 40.7 °F 44.6 °F 93% 29.48 in 4.0 mi NNW 12.7 mph - 0.03 in   Heavy Drizzle
4:13 AM 46.4 °F 40.4 °F 44.6 °F 93% 29.48 in 4.0 mi NNW 13.8 mph - 0.01 in   Drizzle
4:33 AM 46.4 °F 39.8 °F 44.6 °F 93% 29.50 in 3.0 mi NNW 16.1 mph 20.7 mph 0.03 in   Heavy Drizzle
4:53 AM 46.4 °F 39.8 °F 44.6 °F 93% 29.51 in 4.0 mi NNW 16.1 mph 20.7 mph 0.05 in   Heavy Drizzle
5:13 AM 44.6 °F 37.8 °F 44.6 °F 100% 29.52 in 5.0 mi NNW 15.0 mph 21.9 mph N/A   Drizzle
5:34 AM 44.6 °F 37.2 °F 42.8 °F 93% 29.53 in 5.0 mi NNW 17.3 mph 21.9 mph 0.01 in Rain Rain
5:53 AM 44.6 °F 37.2 °F 42.8 °F 93% 29.53 in 5.0 mi North 17.3 mph 24.2 mph 0.01 in   Light Drizzle
6:13 AM 44.6 °F 38.1 °F 42.8 °F 93% 29.54 in 10.0 mi North 13.8 mph 23.0 mph N/A   Overcast
6:33 AM 44.6 °F 38.1 °F 42.8 °F 93% 29.54 in 10.0 mi North 13.8 mph 20.7 mph N/A Rain Light Rain
6:53 AM 44.6 °F 37.8 °F 42.8 °F 93% 29.55 in 10.0 mi NNW 15.0 mph 18.4 mph N/A   Overcast
7:14 AM 44.6 °F 37.8 °F 42.8 °F 93% 29.55 in 7.0 mi NNW 15.0 mph 21.9 mph N/A   Light Drizzle
7:34 AM 44.6 °F 38.4 °F 42.8 °F 93% 29.56 in 10.0 mi NNW 12.7 mph - N/A   Drizzle
7:53 AM 42.8 °F 37.0 °F 42.8 °F 100% 29.58 in 10.0 mi NNW 10.4 mph 17.3 mph N/A   Drizzle
8:14 AM 42.8 °F 36.6 °F 42.8 °F 100% 29.59 in 10.0 mi NNW 11.5 mph 18.4 mph 0.01 in   Drizzle
8:34 AM 42.8 °F 35.4 °F 42.8 °F 100% 29.60 in 7.0 mi NNW 15.0 mph 19.6 mph 0.03 in Rain Light Rain
8:53 AM 42.8 °F 35.4 °F 41.0 °F 93% 29.60 in 7.0 mi NNW 15.0 mph - 0.03 in   Drizzle
9:14 AM 42.8 °F 36.2 °F 41.0 °F 93% 29.61 in 10.0 mi North 12.7 mph 17.3 mph 0.01 in   Drizzle
9:34 AM 42.8 °F 37.0 °F 41.0 °F 93% 29.62 in 7.0 mi North 10.4 mph 18.4 mph 0.01 in   Drizzle
9:53 AM 42.8 °F 37.0 °F 41.0 °F 93% 29.63 in 10.0 mi NNW 10.4 mph - 0.02 in   Drizzle
10:14 AM 42.8 °F 38.0 °F 41.0 °F 93% 29.63 in 10.0 mi NNW 8.1 mph - N/A Rain Rain
10:34 AM 42.8 °F 37.0 °F 42.8 °F 100% 29.63 in 10.0 mi NNW 10.4 mph - N/A   Light Drizzle
10:53 AM 42.8 °F 37.0 °F 42.8 °F 100% 29.64 in 10.0 mi NNW 10.4 mph - N/A   Overcast
11:14 AM 42.8 °F 38.6 °F 42.8 °F 100% 29.64 in 10.0 mi NNW 6.9 mph - N/A   Overcast
11:34 AM 44.6 °F 38.8 °F 42.8 °F 93% 29.65 in 10.0 mi NNW 11.5 mph - N/A   Overcast
11:53 AM 44.6 °F 39.7 °F 42.8 °F 93% 29.66 in 10.0 mi North 9.2 mph - N/A   Overcast
12:14 PM 44.6 °F 39.7 °F 42.8 °F 93% 29.65 in 10.0 mi NNW 9.2 mph - N/A   Overcast
12:34 PM 44.6 °F 39.7 °F 42.8 °F 93% 29.66 in 10.0 mi NNW 9.2 mph - N/A   Overcast
12:53 PM 46.4 °F 42.4 °F 42.8 °F 87% 29.66 in 10.0 mi NNW 8.1 mph - N/A   Overcast
1:14 PM 44.6 °F 40.2 °F 42.8 °F 93% 29.66 in 10.0 mi NNW 8.1 mph - N/A   Overcast
1:33 PM 46.4 °F 41.5 °F 42.8 °F 87% 29.66 in 10.0 mi North 10.4 mph - N/A   Overcast
1:53 PM 46.4 °F 41.9 °F 42.8 °F 87% 29.66 in 10.0 mi NNW 9.2 mph - N/A   Overcast
2:14 PM 46.4 °F 41.9 °F 42.8 °F 87% 29.67 in 10.0 mi NNW 9.2 mph - N/A   Overcast
2:33 PM 46.4 °F 41.5 °F 42.8 °F 87% 29.66 in 10.0 mi NW 10.4 mph - N/A   Overcast
2:53 PM 46.4 °F 42.4 °F 44.6 °F 93% 29.66 in 7.0 mi NW 8.1 mph - N/A   Overcast
3:14 PM 46.4 °F 41.9 °F 42.8 °F 87% 29.67 in 7.0 mi NNW 9.2 mph - N/A   Overcast
3:33 PM 46.4 °F 42.4 °F 42.8 °F 87% 29.67 in 10.0 mi NNW 8.1 mph - N/A   Overcast
3:53 PM 46.4 °F 42.4 °F 42.8 °F 87% 29.67 in 10.0 mi North 8.1 mph - N/A   Overcast
4:13 PM 46.4 °F 42.4 °F 42.8 °F 87% 29.67 in 10.0 mi NNW 8.1 mph - N/A   Overcast
4:33 PM 46.4 °F 42.9 °F 42.8 °F 87% 29.67 in 10.0 mi North 6.9 mph - N/A   Overcast
4:54 PM 46.4 °F 44.3 °F 42.8 °F 87% 29.67 in 10.0 mi North 4.6 mph - N/A   Overcast
5:13 PM 46.4 °F 43.5 °F 42.8 °F 87% 29.68 in 10.0 mi NW 5.8 mph - N/A   Overcast
5:33 PM 44.6 °F 40.2 °F 42.8 °F 93% 29.68 in 10.0 mi NW 8.1 mph - N/A   Overcast
5:54 PM 44.6 °F 40.2 °F 42.8 °F 93% 29.69 in 10.0 mi NW 8.1 mph - N/A   Overcast
6:13 PM 44.6 °F 41.4 °F 42.8 °F 93% 29.70 in 10.0 mi NNW 5.8 mph - N/A   Overcast
6:33 PM 44.6 °F 41.4 °F 42.8 °F 93% 29.71 in 10.0 mi WNW 5.8 mph - N/A   Overcast
6:54 PM 44.6 °F 40.7 °F 42.8 °F 93% 29.72 in 10.0 mi NW 6.9 mph - N/A   Overcast
7:13 PM 44.6 °F 41.4 °F 42.8 °F 93% 29.72 in 10.0 mi WNW 5.8 mph - N/A   Overcast
7:33 PM 44.6 °F 41.4 °F 42.8 °F 93% 29.72 in 10.0 mi WNW 5.8 mph - N/A   Overcast
7:54 PM 44.6 °F 43.1 °F 41.0 °F 87% 29.72 in 10.0 mi WNW 3.5 mph - N/A   Overcast
8:13 PM 44.6 °F 41.4 °F 41.0 °F 87% 29.72 in 10.0 mi WNW 5.8 mph - N/A   Overcast
8:33 PM 42.8 °F 39.3 °F 41.0 °F 93% 29.72 in 10.0 mi NW 5.8 mph - N/A   Overcast
8:54 PM 42.8 °F 41.1 °F 41.0 °F 93% 29.72 in 10.0 mi NW 3.5 mph - N/A   Overcast
9:13 PM 42.8 °F - 41.0 °F 93% 29.73 in 10.0 mi Calm Calm - N/A   Overcast
9:34 PM 42.8 °F - 41.0 °F 93% 29.73 in 10.0 mi Calm Calm - N/A   Overcast
9:53 PM 42.8 °F - 41.0 °F 93% 29.73 in 10.0 mi Calm Calm - N/A   Overcast
10:13 PM 42.8 °F - 41.0 °F 93% 29.72 in 10.0 mi Calm Calm - N/A   Overcast
10:33 PM 42.8 °F - 41.0 °F 93% 29.72 in 10.0 mi Calm Calm - N/A   Overcast
10:53 PM 42.8 °F 41.1 °F 41.0 °F 93% 29.73 in 10.0 mi West 3.5 mph - N/A   Overcast
11:14 PM 42.8 °F - 41.0 °F 93% 29.73 in 10.0 mi Calm Calm - N/A   Overcast
11:33 PM 42.8 °F - 41.0 °F 93% 29.73 in 10.0 mi Calm Calm - N/A   Overcast
11:53 PM 42.8 °F - 41.0 °F 93% 29.73 in 10.0 mi Calm Calm - N/A   Overcast